HBJPA CYYR-CYFB

Flight info

Callsign HBJPA
Flight time N/A
Altitude 18000
Route YYR DCT YDP DCT RODBO DCT YFY
Aircraft C208/L-SDFGR/C

Departure

Time 2026-05-08 12:47
Airport Goose Bay Airport (CYYR)

Arrival

Time N/A
Airport Iqaluit Airport (CYFB)
Time Latitude Longitude Altitude Speed Heading
2026-05-08 12:31 53.31008 -60.40047 142 ft 0 kts 222°
2026-05-08 12:40 53.31006 -60.40050 142 ft 3 kts 223°
2026-05-08 12:41 53.31030 -60.40091 141 ft 11 kts 357°
2026-05-08 12:41 53.31139 -60.40090 142 ft 15 kts 313°
2026-05-08 12:41 53.31182 -60.40169 144 ft 5 kts 313°
2026-05-08 12:41 53.31201 -60.40202 146 ft 8 kts 313°
2026-05-08 12:42 53.31290 -60.40361 151 ft 28 kts 314°
2026-05-08 12:42 53.31383 -60.40526 153 ft 16 kts 316°
2026-05-08 12:42 53.31485 -60.40656 153 ft 17 kts 27°
2026-05-08 12:42 53.31604 -60.40482 154 ft 29 kts 42°
2026-05-08 12:43 53.31733 -60.40325 156 ft 18 kts 13°
2026-05-08 12:43 53.31876 -60.40272 156 ft 25 kts
2026-05-08 12:43 53.31980 -60.40364 159 ft 8 kts 313°
2026-05-08 12:43 53.32023 -60.40444 160 ft 16 kts 310°
2026-05-08 12:44 53.32114 -60.40622 162 ft 17 kts 277°
2026-05-08 12:44 53.32102 -60.40681 163 ft 0 kts 235°
2026-05-08 12:44 53.32103 -60.40679 163 ft 1 kts 235°
2026-05-08 12:44 53.32105 -60.40673 163 ft 0 kts 236°
2026-05-08 12:45 53.32105 -60.40674 163 ft 0 kts 236°
2026-05-08 12:46 53.32024 -60.40869 161 ft 51 kts 235°
2026-05-08 12:46 53.31721 -60.41586 204 ft 92 kts 235°
2026-05-08 12:46 53.31335 -60.42474 482 ft 95 kts 237°
2026-05-08 12:46 53.30914 -60.43397 681 ft 101 kts 241°
2026-05-08 12:47 53.30566 -60.44425 910 ft 104 kts 250°
2026-05-08 12:47 53.30430 -60.45650 1110 ft 109 kts 267°
2026-05-08 12:47 53.30379 -60.46907 1472 ft 106 kts 266°
2026-05-08 12:47 53.30316 -60.48128 1793 ft 105 kts 265°
2026-05-08 12:48 53.30245 -60.49356 2065 ft 107 kts 265°
2026-05-08 12:48 53.30213 -60.50566 2375 ft 105 kts 281°
2026-05-08 12:48 53.30730 -60.51391 2588 ft 117 kts 337°
2026-05-08 12:48 53.31623 -60.51043 2545 ft 151 kts 30°
2026-05-08 12:49 53.32190 -60.49565 2773 ft 156 kts 70°
2026-05-08 12:49 53.32276 -60.47750 2983 ft 157 kts 89°
2026-05-08 12:49 53.32197 -60.45923 3185 ft 157 kts 99°
2026-05-08 12:49 53.31943 -60.44161 3395 ft 154 kts 101°
2026-05-08 12:50 53.32062 -60.42440 3603 ft 150 kts 68°
2026-05-08 12:50 53.32171 -60.40684 3809 ft 154 kts 88°
2026-05-08 12:50 53.32134 -60.38883 4024 ft 155 kts 87°
2026-05-08 12:50 53.32107 -60.37080 4239 ft 155 kts 86°
2026-05-08 12:51 53.32078 -60.35234 4456 ft 163 kts 87°
2026-05-08 12:51 53.32760 -60.31771 4889 ft 158 kts 37°
2026-05-08 12:51 53.33654 -60.30805 5125 ft 150 kts 12°
2026-05-08 12:52 53.34664 -60.30561 5345 ft 145 kts 348°
2026-05-08 12:52 53.36569 -60.31279 5772 ft 136 kts 339°
2026-05-08 12:52 53.37472 -60.31638 5974 ft 132 kts 339°
2026-05-08 12:53 53.38356 -60.31995 6179 ft 130 kts 338°
2026-05-08 12:53 53.39234 -60.32349 6369 ft 129 kts 338°
2026-05-08 12:53 53.40096 -60.32697 6565 ft 129 kts 338°
2026-05-08 12:53 53.40963 -60.33078 6762 ft 128 kts 335°
2026-05-08 12:54 53.41781 -60.33485 7147 ft 113 kts 332°
2026-05-08 12:54 53.42513 -60.33913 7443 ft 111 kts 329°
2026-05-08 12:54 53.43231 -60.34417 7695 ft 112 kts 325°
2026-05-08 12:54 53.43932 -60.34987 7965 ft 112 kts 322°
2026-05-08 12:55 53.44615 -60.35618 8211 ft 113 kts 319°
2026-05-08 12:55 53.45270 -60.36325 8455 ft 112 kts 316°
2026-05-08 12:55 53.45898 -60.37098 8723 ft 112 kts 313°
2026-05-08 12:55 53.46466 -60.37866 8966 ft 112 kts 311°
2026-05-08 12:56 53.47047 -60.38734 9223 ft 112 kts 308°
2026-05-08 12:56 53.47606 -60.39650 9490 ft 112 kts 306°
2026-05-08 12:56 53.48138 -60.40608 9698 ft 112 kts 303°
2026-05-08 12:56 53.48642 -60.41608 9919 ft 112 kts 300°
2026-05-08 12:57 53.49120 -60.42652 10154 ft 113 kts 297°
2026-05-08 12:57 53.49563 -60.43725 10396 ft 113 kts 295°
2026-05-08 12:57 53.49979 -60.44852 10637 ft 113 kts 292°
2026-05-08 12:57 53.50362 -60.46002 10860 ft 113 kts 289°
2026-05-08 12:58 53.50714 -60.47181 11084 ft 113 kts 287°
2026-05-08 12:58 53.51037 -60.48387 11308 ft 113 kts 285°
2026-05-08 12:58 53.51328 -60.49616 11541 ft 113 kts 282°
2026-05-08 12:58 53.51585 -60.50863 11759 ft 113 kts 280°
2026-05-08 12:59 53.51783 -60.51969 11969 ft 113 kts 278°
2026-05-08 12:59 53.51979 -60.53250 12203 ft 113 kts 275°
2026-05-08 12:59 53.52142 -60.54542 12459 ft 113 kts 272°
2026-05-08 12:59 53.52271 -60.55842 12685 ft 113 kts 270°
2026-05-08 13:00 53.52368 -60.57147 12906 ft 112 kts 268°
2026-05-08 13:00 53.52431 -60.58456 13128 ft 112 kts 265°
2026-05-08 13:00 53.52463 -60.59759 13340 ft 112 kts 263°
2026-05-08 13:00 53.52461 -60.61065 13538 ft 112 kts 261°
2026-05-08 13:01 53.52426 -60.62369 13736 ft 112 kts 259°
2026-05-08 13:01 53.52352 -60.63664 13931 ft 111 kts 256°
2026-05-08 13:01 53.52245 -60.64951 14126 ft 111 kts 254°
2026-05-08 13:01 53.52111 -60.66212 14324 ft 111 kts 252°
2026-05-08 13:02 53.51944 -60.67478 14515 ft 111 kts 250°
2026-05-08 13:02 53.51749 -60.68725 14709 ft 110 kts 248°
2026-05-08 13:02 53.51523 -60.69957 14913 ft 110 kts 246°
2026-05-08 13:02 53.51268 -60.71165 15086 ft 110 kts 244°
2026-05-08 13:03 53.50985 -60.72351 15273 ft 109 kts 242°
2026-05-08 13:03 53.50675 -60.73513 15461 ft 109 kts 240°
2026-05-08 13:03 53.50339 -60.74650 15618 ft 109 kts 238°
2026-05-08 13:03 53.49975 -60.75775 15812 ft 109 kts 237°
2026-05-08 13:04 53.49588 -60.76865 16018 ft 109 kts 234°
2026-05-08 13:04 53.49178 -60.77927 16188 ft 108 kts 232°
2026-05-08 13:04 53.48742 -60.78963 16362 ft 108 kts 231°
2026-05-08 13:04 53.48285 -60.79963 16540 ft 108 kts 229°
2026-05-08 13:05 53.47804 -60.80930 16724 ft 108 kts 227°
2026-05-08 13:05 53.47301 -60.81865 16900 ft 108 kts 226°
2026-05-08 13:05 53.46779 -60.82760 17060 ft 109 kts 224°
2026-05-08 13:05 53.46226 -60.83637 17248 ft 109 kts 222°
2026-05-08 13:06 53.45654 -60.84476 17439 ft 109 kts 220°
2026-05-08 13:06 53.45063 -60.85277 17614 ft 110 kts 218°
2026-05-08 13:06 53.44417 -60.86087 17624 ft 120 kts 217°
2026-05-08 13:06 53.43708 -60.86916 17623 ft 128 kts 216°
2026-05-08 13:07 53.42953 -60.87741 17627 ft 131 kts 214°
2026-05-08 13:07 53.42172 -60.88541 17628 ft 132 kts 213°
2026-05-08 13:07 53.41369 -60.89314 17627 ft 134 kts 212°
2026-05-08 13:07 53.40538 -60.90060 17624 ft 136 kts 210°
2026-05-08 13:08 53.39697 -60.90764 17626 ft 137 kts 209°
2026-05-08 13:08 53.38827 -60.91442 17626 ft 139 kts 208°
2026-05-08 13:08 53.37940 -60.92084 17626 ft 139 kts 206°
2026-05-08 13:08 53.37035 -60.92690 17627 ft 142 kts 205°
2026-05-08 13:09 53.36101 -60.93267 17625 ft 144 kts 204°
2026-05-08 13:09 53.35147 -60.93812 17630 ft 146 kts 203°
2026-05-08 13:09 53.34172 -60.94320 17631 ft 147 kts 201°
2026-05-08 13:09 53.33183 -60.94787 17637 ft 148 kts 200°
2026-05-08 13:10 53.32182 -60.95215 17634 ft 149 kts 199°
2026-05-08 13:10 53.31166 -60.95600 17633 ft 150 kts 198°
2026-05-08 13:10 53.30137 -60.95941 17632 ft 151 kts 197°
2026-05-08 13:10 53.29098 -60.96234 17632 ft 152 kts 195°
2026-05-08 13:11 53.28056 -60.96499 17630 ft 157 kts 185°
2026-05-08 13:11 53.27035 -60.95626 17631 ft 183 kts 143°
2026-05-08 13:11 53.26546 -60.93546 17634 ft 209 kts 102°
2026-05-08 13:11 53.26923 -60.91137 17639 ft 223 kts 63°
2026-05-08 13:12 53.27810 -60.88982 17630 ft 226 kts 56°
2026-05-08 13:12 53.28739 -60.86855 17633 ft 227 kts 56°
2026-05-08 13:12 53.29674 -60.84767 17631 ft 227 kts 55°
2026-05-08 13:12 53.30640 -60.82680 17633 ft 227 kts 53°
2026-05-08 13:13 53.31606 -60.80600 17623 ft 225 kts 60°
2026-05-08 13:13 53.32094 -60.78201 17615 ft 214 kts 92°
2026-05-08 13:13 53.32230 -60.75727 17619 ft 215 kts 91°
2026-05-08 13:13 53.32499 -60.73252 17623 ft 216 kts 86°
2026-05-08 13:14 53.32634 -60.70782 17615 ft 211 kts 99°
2026-05-08 13:14 53.32571 -60.68349 17615 ft 208 kts 103°
2026-05-08 13:14 53.32509 -60.65923 17616 ft 209 kts 101°
2026-05-08 13:14 53.32478 -60.63488 17616 ft 209 kts 100°
2026-05-08 13:15 53.32449 -60.61054 17616 ft 209 kts 101°
2026-05-08 13:15 53.32416 -60.58624 17616 ft 209 kts 101°
2026-05-08 13:15 53.32381 -60.56191 17615 ft 209 kts 101°
2026-05-08 13:15 53.32348 -60.53760 17617 ft 208 kts 101°
2026-05-08 13:16 53.32399 -60.51329 17615 ft 216 kts 83°
2026-05-08 13:16 53.33104 -60.49059 17609 ft 222 kts 66°
2026-05-08 13:16 53.33672 -60.46698 17617 ft 224 kts 68°
2026-05-08 13:16 53.34759 -60.44768 17623 ft 233 kts 35°
2026-05-08 13:17 53.36151 -60.43377 17631 ft 233 kts 20°
2026-05-08 13:17 53.37671 -60.42665 17631 ft 227 kts 356°
2026-05-08 13:17 53.39178 -60.42971 17679 ft 212 kts 332°
2026-05-08 13:17 53.40581 -60.43712 17634 ft 211 kts 333°
2026-05-08 13:18 53.42013 -60.44294 17632 ft 212 kts 337°
2026-05-08 13:18 53.43453 -60.44800 17630 ft 210 kts 337°
2026-05-08 13:18 53.44879 -60.45323 17616 ft 209 kts 337°
2026-05-08 13:18 53.46298 -60.45852 17613 ft 209 kts 336°
2026-05-08 13:19 53.47720 -60.46390 17606 ft 209 kts 336°
2026-05-08 13:19 53.49140 -60.46920 17603 ft 209 kts 337°
2026-05-08 13:19 53.50562 -60.47445 17601 ft 209 kts 337°
2026-05-08 13:19 53.51979 -60.47970 17602 ft 209 kts 336°
2026-05-08 13:20 53.53403 -60.48494 17610 ft 208 kts 337°
2026-05-08 13:20 53.54816 -60.49021 17613 ft 208 kts 336°
2026-05-08 13:20 53.56225 -60.49551 17611 ft 207 kts 336°
2026-05-08 13:20 53.57636 -60.50081 17610 ft 209 kts 337°
2026-05-08 13:21 53.59056 -60.50606 17605 ft 208 kts 336°
2026-05-08 13:21 53.60473 -60.51136 17606 ft 208 kts 336°
2026-05-08 13:21 53.61891 -60.51670 17607 ft 209 kts 336°
2026-05-08 13:21 53.63314 -60.52201 17608 ft 210 kts 336°
2026-05-08 13:22 53.64734 -60.52733 17609 ft 209 kts 336°
2026-05-08 13:22 53.66156 -60.53267 17605 ft 208 kts 336°
2026-05-08 13:22 53.67552 -60.53791 17606 ft 208 kts 336°
2026-05-08 13:22 53.68970 -60.54319 17604 ft 209 kts 336°
2026-05-08 13:23 53.70392 -60.54854 17607 ft 210 kts 336°
2026-05-08 13:23 53.71818 -60.55396 17607 ft 210 kts 336°
2026-05-08 13:23 53.73252 -60.55931 17606 ft 211 kts 336°
2026-05-08 13:23 53.74686 -60.56469 17607 ft 211 kts 336°
2026-05-08 13:24 53.76113 -60.57011 17604 ft 211 kts 336°
2026-05-08 13:24 53.77547 -60.57542 17609 ft 211 kts 340°
2026-05-08 13:24 53.78972 -60.58063 17606 ft 208 kts 339°
2026-05-08 13:24 53.80374 -60.58613 17605 ft 206 kts 339°
2026-05-08 13:25 53.81764 -60.59145 17597 ft 205 kts 339°
2026-05-08 13:25 53.83151 -60.59667 17595 ft 203 kts 339°
2026-05-08 13:25 53.84534 -60.60192 17594 ft 203 kts 339°
2026-05-08 13:25 53.85916 -60.60714 17593 ft 204 kts 339°
2026-05-08 13:26 53.87301 -60.61238 17590 ft 204 kts 339°
2026-05-08 13:26 53.88686 -60.61763 17590 ft 203 kts 339°
2026-05-08 13:26 53.90048 -60.62280 17589 ft 204 kts 339°
2026-05-08 13:26 53.91430 -60.62805 17588 ft 203 kts 339°
2026-05-08 13:27 53.92811 -60.63329 17592 ft 203 kts 339°
2026-05-08 13:27 53.94196 -60.63856 17585 ft 204 kts 339°
2026-05-08 13:27 53.95580 -60.64381 17585 ft 203 kts 339°
2026-05-08 13:27 53.96962 -60.64908 17583 ft 203 kts 339°
2026-05-08 13:28 53.97876 -60.65257 17582 ft 203 kts 339°
2026-05-08 13:28 53.99720 -60.65960 17581 ft 203 kts 339°
2026-05-08 13:28 54.00630 -60.66306 17593 ft 203 kts 339°
2026-05-08 13:28 54.02011 -60.66834 17593 ft 204 kts 339°
2026-05-08 13:29 54.03396 -60.67363 17586 ft 204 kts 339°
2026-05-08 13:29 54.04783 -60.67893 17585 ft 204 kts 339°
2026-05-08 13:29 54.06167 -60.68422 17585 ft 204 kts 339°
2026-05-08 13:29 54.07552 -60.68951 17579 ft 204 kts 339°
2026-05-08 13:30 54.08937 -60.69482 17581 ft 204 kts 339°
2026-05-08 13:30 54.10325 -60.70014 17581 ft 204 kts 339°
2026-05-08 13:30 54.11710 -60.70545 17583 ft 204 kts 339°
2026-05-08 13:30 54.13099 -60.71076 17581 ft 204 kts 339°
2026-05-08 13:31 54.14486 -60.71610 17585 ft 204 kts 339°
2026-05-08 13:31 54.15869 -60.72151 17600 ft 204 kts 339°
2026-05-08 13:31 54.17250 -60.72687 17599 ft 203 kts 341°
2026-05-08 13:31 54.18620 -60.73197 17594 ft 201 kts 340°
2026-05-08 13:32 54.19984 -60.73721 17581 ft 200 kts 340°
2026-05-08 13:32 54.21337 -60.74245 17583 ft 199 kts 340°
2026-05-08 13:32 54.22686 -60.74766 17578 ft 199 kts 340°
2026-05-08 13:32 54.24017 -60.75280 17586 ft 198 kts 340°
2026-05-08 13:33 54.25377 -60.75805 17577 ft 198 kts 340°
2026-05-08 13:33 54.26720 -60.76325 17575 ft 198 kts 340°
2026-05-08 13:33 54.28045 -60.76836 17577 ft 198 kts 340°
2026-05-08 13:33 54.29388 -60.77356 17572 ft 198 kts 340°
2026-05-08 13:34 54.30731 -60.77876 17569 ft 198 kts 340°
2026-05-08 13:34 54.32072 -60.78394 17576 ft 198 kts 340°
2026-05-08 13:34 54.33419 -60.78922 17571 ft 199 kts 340°
2026-05-08 13:34 54.34770 -60.79443 17571 ft 199 kts 340°
2026-05-08 13:35 54.36125 -60.79966 17571 ft 200 kts 340°
2026-05-08 13:35 54.37483 -60.80493 17571 ft 200 kts 340°
2026-05-08 13:35 54.38839 -60.81020 17575 ft 200 kts 340°
2026-05-08 13:35 54.40195 -60.81550 17575 ft 200 kts 340°
2026-05-08 13:36 54.41553 -60.82077 17573 ft 200 kts 340°
2026-05-08 13:36 54.42892 -60.82596 17573 ft 200 kts 340°
2026-05-08 13:36 54.44249 -60.83127 17574 ft 200 kts 340°
2026-05-08 13:36 54.45607 -60.83657 17577 ft 200 kts 340°
2026-05-08 13:37 54.46963 -60.84186 17563 ft 200 kts 340°
2026-05-08 13:37 54.48338 -60.84723 17564 ft 200 kts 340°
2026-05-08 13:37 54.49678 -60.85247 17564 ft 200 kts 340°
2026-05-08 13:37 54.51036 -60.85778 17564 ft 200 kts 340°
2026-05-08 13:38 54.52400 -60.86313 17560 ft 200 kts 340°
2026-05-08 13:38 54.53763 -60.86846 17561 ft 200 kts 340°
2026-05-08 13:38 54.55119 -60.87375 17577 ft 200 kts 340°
2026-05-08 13:38 54.56470 -60.87903 17578 ft 198 kts 340°
2026-05-08 13:39 54.57815 -60.88432 17577 ft 197 kts 340°
2026-05-08 13:39 54.59150 -60.88957 17571 ft 197 kts 340°
2026-05-08 13:39 54.60486 -60.89485 17568 ft 197 kts 340°
2026-05-08 13:39 54.61800 -60.90000 17566 ft 196 kts 340°
2026-05-08 13:40 54.63129 -60.90522 17568 ft 196 kts 340°
2026-05-08 13:40 54.64461 -60.91045 17573 ft 196 kts 340°
2026-05-08 13:40 54.65795 -60.91582 17563 ft 197 kts 341°
2026-05-08 13:40 54.67137 -60.92104 17563 ft 198 kts 340°
2026-05-08 13:41 54.68485 -60.92632 17563 ft 198 kts 341°
2026-05-08 13:41 54.69828 -60.93162 17563 ft 198 kts 341°
2026-05-08 13:41 54.71170 -60.93695 17558 ft 198 kts 341°
2026-05-08 13:41 54.72518 -60.94226 17555 ft 199 kts 340°
2026-05-08 13:42 54.73862 -60.94757 17555 ft 198 kts 340°
2026-05-08 13:42 54.75210 -60.95293 17556 ft 198 kts 341°
2026-05-08 13:42 54.76541 -60.95816 17556 ft 199 kts 340°
2026-05-08 13:42 54.77885 -60.96349 17554 ft 198 kts 341°
2026-05-08 13:43 54.79228 -60.96884 17555 ft 198 kts 341°
2026-05-08 13:43 54.80572 -60.97422 17555 ft 198 kts 341°
2026-05-08 13:43 54.81916 -60.97950 17554 ft 198 kts 340°
2026-05-08 13:43 54.83258 -60.98481 17550 ft 198 kts 341°
2026-05-08 13:44 54.84600 -60.99018 17541 ft 198 kts 341°
2026-05-08 13:44 54.85946 -60.99555 17537 ft 199 kts 340°
2026-05-08 13:44 54.87294 -61.00097 17536 ft 199 kts 340°
2026-05-08 13:44 54.88642 -61.00636 17536 ft 199 kts 340°
2026-05-08 13:45 54.89995 -61.01170 17543 ft 200 kts 340°
2026-05-08 13:45 54.91347 -61.01707 17538 ft 199 kts 340°
2026-05-08 13:45 54.92691 -61.02255 17537 ft 198 kts 340°
2026-05-08 13:45 54.94037 -61.02791 17536 ft 199 kts 340°
2026-05-08 13:46 54.95384 -61.03323 17541 ft 198 kts 340°
2026-05-08 13:46 54.96727 -61.03864 17539 ft 198 kts 341°
2026-05-08 13:46 54.98074 -61.04395 17536 ft 199 kts 341°
2026-05-08 13:46 54.99425 -61.04929 17533 ft 199 kts 340°
2026-05-08 13:47 55.00775 -61.05492 17530 ft 200 kts 340°
2026-05-08 13:47 55.02129 -61.06038 17533 ft 200 kts 341°
2026-05-08 13:47 55.03483 -61.06571 17534 ft 200 kts 340°
2026-05-08 13:47 55.04840 -61.07123 17532 ft 200 kts 340°
2026-05-08 13:48 55.06198 -61.07669 17536 ft 201 kts 340°
2026-05-08 13:48 55.07562 -61.08202 17538 ft 201 kts 341°
2026-05-08 13:48 55.08902 -61.08742 17541 ft 201 kts 340°
2026-05-08 13:48 55.10265 -61.09300 17524 ft 200 kts 341°
2026-05-08 13:49 55.11624 -61.09855 17521 ft 201 kts 340°
2026-05-08 13:49 55.12987 -61.10402 17521 ft 201 kts 341°
2026-05-08 13:49 55.14352 -61.10947 17523 ft 201 kts 341°
2026-05-08 13:49 55.15713 -61.11501 17528 ft 201 kts 340°
2026-05-08 13:50 55.17076 -61.12045 17520 ft 201 kts 341°
2026-05-08 13:50 55.18440 -61.12581 17524 ft 201 kts 341°
2026-05-08 13:50 55.19798 -61.13136 17523 ft 200 kts 341°
2026-05-08 13:50 55.21155 -61.13691 17526 ft 201 kts 340°
2026-05-08 13:51 55.22515 -61.14261 17525 ft 201 kts 340°
2026-05-08 13:51 55.23874 -61.14815 17510 ft 201 kts 340°
2026-05-08 13:51 55.25236 -61.15362 17512 ft 201 kts 340°
2026-05-08 13:51 55.26601 -61.15912 17510 ft 201 kts 340°
2026-05-08 13:52 55.27962 -61.16474 17514 ft 201 kts 341°
2026-05-08 13:52 55.29324 -61.17026 17509 ft 201 kts 340°
2026-05-08 13:52 55.30687 -61.17577 17510 ft 201 kts 341°
2026-05-08 13:52 55.32032 -61.18117 17514 ft 200 kts 341°
2026-05-08 13:53 55.33385 -61.18673 17522 ft 199 kts 339°
2026-05-08 13:53 55.34731 -61.19217 17523 ft 198 kts 340°
2026-05-08 13:53 55.36068 -61.19777 17522 ft 197 kts 341°
2026-05-08 13:53 55.37402 -61.20321 17511 ft 197 kts 340°
2026-05-08 13:54 55.38731 -61.20869 17508 ft 196 kts 338°
2026-05-08 13:54 55.40060 -61.21405 17511 ft 196 kts 340°
2026-05-08 13:54 55.41385 -61.21953 17508 ft 196 kts 339°
2026-05-08 13:54 55.42714 -61.22476 17510 ft 196 kts 338°
2026-05-08 13:55 55.44036 -61.23034 17510 ft 196 kts 339°
2026-05-08 13:55 55.45357 -61.23603 17505 ft 195 kts 341°
2026-05-08 13:55 55.48009 -61.24665 17502 ft 195 kts 339°
2026-05-08 13:56 55.49330 -61.25198 17514 ft 195 kts 341°
2026-05-08 13:56 55.50645 -61.25765 17515 ft 194 kts 339°